Location: Celina Elementary School
(33.3262°N, 96.7767°W)
Time: 07:48:15
(UTC+00:00)

Cosmos 1763 Rocket - Pass Details

Date: 26 November 2021
Orbit: 732 x 780 km, 74.0° (Epoch: 19 January)

Event Time Altitude Azimuth Distance (km) Brightness Sun altitude
Exits shadow 12:11:52 14° 310° (NW) 2,048 5.1 -11.9°
Maximum altitude 12:15:19 26° 261° (W) 1,473 4.5 -11.2°
Drops below altitude 10° 12:19:37 10° 206° (SSW) 2,309 5.9 -10.4°
Sets 12:22:20 0° 194° (SSW) 3,238 6.8 -9.8°
